| time (UTC) | temp F | wind direction | speed MPH | gust MPH | rain 1hr in | rain 24hr in | rain mn in | humidity % | barometer mb |
| 20260902022829 | 68 | 269 | 0.0 | 1.0 | 0.00 | 0.01 | 0.01 | 74 | 1015.2 |
| 20260902022325 | 67 | 247 | 0.0 | 1.0 | 0.00 | 0.01 | 0.01 | 74 | 1015.1 |
| 20260902021821 | 68 | 259 | 0.0 | 1.0 | 0.00 | 0.01 | 0.01 | 74 | 1015.3 |
| 20260902021320 | 68 | 272 | 0.0 | 1.0 | 0.00 | 0.01 | 0.01 | 73 | 1015.3 |
| 20260902020816 | 68 | 241 | 0.0 | 1.0 | 0.00 | 0.01 | 0.01 | 73 | 1015.1 |
| 20260902020312 | 68 | 260 | 1.0 | 1.0 | 0.00 | 0.01 | 0.01 | 72 | 1015.0 |
| 20260902015807 | 68 | 248 | 0.0 | 2.0 | 0.00 | 0.01 | 0.01 | 72 | 1015.3 |
| 20260902015306 | 68 | 279 | 1.0 | 3.0 | 0.00 | 0.01 | 0.01 | 72 | 1015.0 |
| 20260902014759 | 68 | 271 | 0.0 | 1.0 | 0.00 | 0.01 | 0.01 | 72 | 1015.1 |
| 20260902014256 | 68 | 273 | 1.0 | 2.0 | 0.00 | 0.01 | 0.01 | 72 | 1015.2 |
| 20260902013754 | 68 | 286 | 0.0 | 1.0 | 0.00 | 0.01 | 0.01 | 72 | 1015.3 |
| 20260902013250 | 69 | 255 | 0.0 | 2.0 | 0.00 | 0.01 | 0.01 | 72 | 1015.2 |
| 20260902012745 | 68 | 261 | 0.0 | 1.0 | 0.00 | 0.01 | 0.01 | 73 | 1015.2 |
| 20260902012241 | 69 | 277 | 1.0 | 1.0 | 0.00 | 0.01 | 0.01 | 72 | 1015.1 |
| 20260902011736 | 69 | 290 | 1.0 | 2.0 | 0.00 | 0.01 | 0.01 | 72 | 1015.0 |
| 20260902011236 | 69 | 279 | 1.0 | 1.0 | 0.00 | 0.01 | 0.01 | 71 | 1015.0 |
| 20260902010735 | 69 | 315 | 1.0 | 2.0 | 0.00 | 0.01 | 0.01 | 70 | 1015.0 |
| 20260902010231 | 70 | 263 | 0.0 | 2.0 | 0.00 | 0.01 | 0.01 | 69 | 1014.7 |
| 20260902005729 | 70 | 289 | 2.0 | 3.0 | 0.00 | 0.01 | 0.01 | 69 | 1015.0 |
| 20260902005225 | 70 | 297 | 1.0 | 2.0 | 0.00 | 0.01 | 0.01 | 68 | 1014.6 |
| 20260902004725 | 70 | 297 | 1.0 | 2.0 | 0.00 | 0.01 | 0.01 | 67 | 1014.9 |
| 20260902004220 | 71 | 298 | 1.0 | 2.0 | 0.00 | 0.01 | 0.01 | 67 | 1014.7 |
| 20260902003715 | 71 | 269 | 1.0 | 3.0 | 0.00 | 0.01 | 0.01 | 67 | 1014.7 |
| 20260902003211 | 71 | 251 | 0.0 | 2.0 | 0.00 | 0.01 | 0.01 | 66 | 1014.6 |
| 20260902002706 | 72 | 295 | 1.0 | 1.0 | 0.00 | 0.01 | 0.01 | 64 | 1014.6 |
| 20260902002200 | 72 | 284 | 1.0 | 3.0 | 0.00 | 0.01 | 0.01 | 64 | 1014.7 |
| 20260902001656 | 73 | 262 | 0.0 | 2.0 | 0.00 | 0.01 | 0.01 | 62 | 1014.7 |
| 20260902001155 | 74 | 271 | 1.0 | 1.0 | 0.00 | 0.01 | 0.01 | 60 | 1014.6 |
| 20260902000650 | 74 | 276 | 0.0 | 2.0 | 0.00 | 0.01 | 0.01 | 61 | 1014.6 |
| 20260902000146 | 74 | 257 | 1.0 | 1.0 | 0.00 | 0.01 | 0.01 | 61 | 1014.6 |
| 20260901235639 | 73 | 269 | 1.0 | 4.0 | 0.00 | 0.01 | 0.01 | 61 | 1014.6 |
| 20260901235135 | 74 | 311 | 2.0 | 4.0 | 0.00 | 0.01 | 0.01 | 61 | 1014.6 |
| 20260901234634 | 74 | 239 | 2.0 | 3.0 | 0.00 | 0.01 | 0.01 | 60 | 1014.6 |
| 20260901234129 | 74 | 282 | 2.0 | 3.0 | 0.00 | 0.01 | 0.01 | 59 | 1014.5 |
| 20260901233624 | 74 | 287 | 2.0 | 6.0 | 0.00 | 0.01 | 0.01 | 60 | 1014.7 |
| 20260901233120 | 74 | 306 | 2.0 | 3.0 | 0.00 | 0.01 | 0.01 | 60 | 1014.7 |
| 20260901232620 | 74 | 269 | 1.0 | 4.0 | 0.00 | 0.01 | 0.01 | 60 | 1014.9 |
| 20260901232115 | 74 | 256 | 1.0 | 6.0 | 0.00 | 0.01 | 0.01 | 60 | 1014.9 |
| 20260901231612 | 75 | 276 | 0.0 | 3.0 | 0.00 | 0.01 | 0.01 | 59 | 1014.7 |
| 20260901231108 | 75 | 265 | 1.0 | 6.0 | 0.00 | 0.01 | 0.01 | 59 | 1014.7 |
| 20260901230603 | 75 | 281 | 2.0 | 2.0 | 0.00 | 0.01 | 0.01 | 58 | 1014.6 |
| 20260901230057 | 76 | 273 | 1.0 | 4.0 | 0.00 | 0.01 | 0.01 | 57 | 1014.9 |
| 20260901225552 | 76 | 297 | 2.0 | 6.0 | 0.00 | 0.01 | 0.01 | 56 | 1014.9 |
| 20260901225052 | 77 | 279 | 1.0 | 6.0 | 0.00 | 0.01 | 0.01 | 55 | 1014.9 |
| 20260901224548 | 78 | 263 | 2.0 | 6.0 | 0.00 | 0.01 | 0.01 | 53 | 1014.9 |
| 20260901224044 | 79 | 293 | 4.0 | 6.0 | 0.00 | 0.01 | 0.01 | 52 | 1014.9 |
| 20260901223539 | 79 | 293 | 3.0 | 7.0 | 0.00 | 0.01 | 0.01 | 52 | 1015.0 |
| 20260901223035 | 79 | 293 | 3.0 | 6.0 | 0.00 | 0.01 | 0.01 | 51 | 1015.0 |
| 20260901222531 | 80 | 217 | 2.0 | 7.0 | 0.00 | 0.01 | 0.01 | 49 | 1014.7 |
| 20260901222026 | 79 | 237 | 2.0 | 7.0 | 0.00 | 0.01 | 0.01 | 51 | 1015.1 |
| 20260901221522 | 79 | 297 | 8.0 | 10.0 | 0.00 | 0.01 | 0.01 | 50 | 1015.0 |
| 20260901221017 | 78 | 289 | 4.0 | 6.0 | 0.00 | 0.01 | 0.01 | 50 | 1015.0 |
| 20260901220512 | 80 | 240 | 3.0 | 7.0 | 0.00 | 0.01 | 0.01 | 49 | 1015.0 |
| 20260901220010 | 81 | 207 | 2.0 | 6.0 | 0.00 | 0.01 | 0.01 | 48 | 1014.9 |
| 20260901215508 | 81 | 239 | 7.0 | 9.0 | 0.00 | 0.01 | 0.01 | 47 | 1014.7 |
| 20260901215003 | 81 | 305 | 6.0 | 9.0 | 0.00 | 0.01 | 0.01 | 47 | 1014.9 |
| 20260901214502 | 81 | 295 | 3.0 | 9.0 | 0.00 | 0.01 | 0.01 | 47 | 1014.9 |
| 20260901213956 | 81 | 250 | 1.0 | 4.0 | 0.00 | 0.01 | 0.01 | 48 | 1014.6 |
| 20260901213450 | 81 | 290 | 3.0 | 4.0 | 0.00 | 0.01 | 0.01 | 49 | 1014.4 |
| 20260901212950 | 81 | 299 | 5.0 | 7.0 | 0.00 | 0.01 | 0.01 | 48 | 1014.6 |
| 20260901212445 | 80 | 251 | 1.0 | 4.0 | 0.00 | 0.01 | 0.01 | 52 | 1014.5 |
| 20260901211942 | 80 | 246 | 2.0 | 6.0 | 0.00 | 0.01 | 0.01 | 50 | 1014.7 |
| 20260901211437 | 80 | 264 | 3.0 | 8.0 | 0.00 | 0.01 | 0.01 | 50 | 1014.7 |
| 20260901210933 | 80 | 291 | 4.0 | 7.0 | 0.00 | 0.01 | 0.01 | 51 | 1014.5 |
| 20260901210428 | 79 | 284 | 2.0 | 7.0 | 0.00 | 0.01 | 0.01 | 49 | 1014.5 |
| 20260901205925 | 81 | 251 | 4.0 | 8.0 | 0.00 | 0.01 | 0.01 | 47 | 1014.5 |
| 20260901205419 | 80 | 300 | 1.0 | 7.0 | 0.00 | 0.01 | 0.01 | 48 | 1014.6 |
| 20260901204914 | 81 | 356 | 5.0 | 7.0 | 0.00 | 0.01 | 0.01 | 47 | 1014.6 |
| 20260901204410 | 82 | 293 | 6.0 | 14.0 | 0.00 | 0.01 | 0.01 | 45 | 1014.6 |
| 20260901203910 | 82 | 291 | 2.0 | 9.0 | 0.00 | 0.01 | 0.01 | 44 | 1014.6 |
| 20260901203404 | 82 | 277 | 2.0 | 10.0 | 0.00 | 0.01 | 0.01 | 44 | 1015.0 |
| 20260901202859 | 82 | 294 | 3.0 | 7.0 | 0.00 | 0.01 | 0.01 | 44 | 1014.9 |
| 20260901202353 | 82 | 264 | 3.0 | 8.0 | 0.00 | 0.01 | 0.01 | 43 | 1014.7 |
| 20260901201851 | 83 | 263 | 6.0 | 11.0 | 0.00 | 0.01 | 0.01 | 41 | 1014.7 |
| 20260901201350 | 83 | 275 | 4.0 | 7.0 | 0.00 | 0.01 | 0.01 | 43 | 1014.9 |
| 20260901200844 | 82 | 231 | 2.0 | 13.0 | 0.00 | 0.01 | 0.01 | 42 | 1014.9 |
| 20260901200339 | 83 | 270 | 4.0 | 11.0 | 0.00 | 0.01 | 0.01 | 42 | 1015.0 |
| 20260901195838 | 84 | 157 | 5.0 | 8.0 | 0.00 | 0.01 | 0.01 | 41 | 1015.0 |
| 20260901195331 | 83 | 282 | 3.0 | 7.0 | 0.00 | 0.01 | 0.01 | 43 | 1015.1 |
| 20260901194827 | 84 | 298 | 7.0 | 8.0 | 0.00 | 0.01 | 0.01 | 41 | 1015.1 |
| 20260901194326 | 83 | 181 | 5.0 | 7.0 | 0.00 | 0.01 | 0.01 | 43 | 1015.2 |
| 20260901193823 | 84 | 303 | 4.0 | 6.0 | 0.00 | 0.01 | 0.01 | 43 | 1015.4 |
| 20260901193321 | 83 | 243 | 1.0 | 3.0 | 0.00 | 0.01 | 0.01 | 43 | 1015.2 |
| 20260901192816 | 83 | 304 | 2.0 | 4.0 | 0.00 | 0.01 | 0.01 | 43 | 1015.4 |
| 20260901192312 | 83 | 346 | 5.0 | 7.0 | 0.00 | 0.01 | 0.01 | 44 | 1015.2 |
| 20260901191808 | 83 | 327 | 2.0 | 6.0 | 0.00 | 0.01 | 0.01 | 44 | 1015.3 |
| 20260901191303 | 84 | 326 | 3.0 | 11.0 | 0.00 | 0.01 | 0.01 | 44 | 1015.3 |
| 20260901190800 | 82 | 229 | 4.0 | 8.0 | 0.00 | 0.01 | 0.01 | 46 | 1015.4 |
| 20260901190259 | 82 | 342 | 6.0 | 11.0 | 0.00 | 0.01 | 0.01 | 45 | 1015.4 |
| 20260901185757 | 82 | 290 | 5.0 | 8.0 | 0.00 | 0.01 | 0.01 | 46 | 1015.5 |
| 20260901185252 | 82 | 276 | 5.0 | 9.0 | 0.00 | 0.01 | 0.01 | 46 | 1015.6 |
| 20260901184747 | 81 | 250 | 3.0 | 9.0 | 0.00 | 0.01 | 0.01 | 47 | 1015.6 |
| 20260901184241 | 81 | 274 | 2.0 | 6.0 | 0.00 | 0.01 | 0.01 | 51 | 1015.6 |
| 20260901183737 | 81 | 303 | 4.0 | 8.0 | 0.00 | 0.01 | 0.01 | 49 | 1015.4 |
| 20260901183237 | 82 | 302 | 2.0 | 9.0 | 0.00 | 0.01 | 0.01 | 50 | 1015.7 |
| 20260901182733 | 81 | 272 | 3.0 | 7.0 | 0.00 | 0.01 | 0.01 | 49 | 1015.7 |
| 20260901182232 | 81 | 230 | 2.0 | 7.0 | 0.00 | 0.01 | 0.01 | 51 | 1015.7 |
| 20260901181727 | 82 | 256 | 6.0 | 7.0 | 0.00 | 0.01 | 0.01 | 50 | 1015.5 |
| 20260901181221 | 82 | 262 | 3.0 | 6.0 | 0.00 | 0.01 | 0.01 | 52 | 1015.4 |
| 20260901180715 | 82 | 294 | 1.0 | 3.0 | 0.00 | 0.01 | 0.01 | 51 | 1015.2 |
| 20260901180215 | 81 | 272 | 2.0 | 11.0 | 0.00 | 0.01 | 0.01 | 53 | 1015.5 |
| 20260901175708 | 80 | 293 | 2.0 | 7.0 | 0.00 | 0.01 | 0.01 | 52 | 1015.5 |
| 20260901175208 | 81 | 264 | 4.0 | 7.0 | 0.00 | 0.01 | 0.01 | 51 | 1015.7 |
| 20260901174703 | 80 | 213 | 1.0 | 3.0 | 0.00 | 0.01 | 0.01 | 56 | 1015.7 |
| 20260901174159 | 80 | 306 | 2.0 | 3.0 | 0.00 | 0.01 | 0.01 | 56 | 1015.9 |
| 20260901173654 | 80 | 241 | 1.0 | 4.0 | 0.00 | 0.01 | 0.01 | 57 | 1015.9 |
| 20260901173149 | 79 | 284 | 2.0 | 8.0 | 0.00 | 0.01 | 0.01 | 59 | 1015.8 |
| 20260901172645 | 79 | 292 | 3.0 | 7.0 | 0.00 | 0.01 | 0.01 | 59 | 1015.9 |
| 20260901172143 | 79 | 256 | 5.0 | 8.0 | 0.00 | 0.01 | 0.01 | 59 | 1016.0 |
| 20260901171637 | 79 | 257 | 1.0 | 8.0 | 0.00 | 0.01 | 0.01 | 61 | 1016.2 |
| 20260901171136 | 80 | 252 | 1.0 | 2.0 | 0.00 | 0.01 | 0.01 | 60 | 1016.0 |
| 20260901170631 | 79 | 317 | 2.0 | 4.0 | 0.00 | 0.01 | 0.01 | 60 | 1016.2 |
| 20260901170126 | 78 | 225 | 2.0 | 3.0 | 0.00 | 0.01 | 0.01 | 60 | 1016.1 |
| 20260901165625 | 78 | 312 | 4.0 | 6.0 | 0.00 | 0.01 | 0.01 | 61 | 1016.0 |
| 20260901165120 | 79 | 334 | 6.0 | 7.0 | 0.00 | 0.01 | 0.01 | 60 | 1016.4 |
| 20260901164616 | 79 | 219 | 4.0 | 6.0 | 0.00 | 0.01 | 0.01 | 60 | 1016.3 |
| 20260901164111 | 78 | 243 | 3.0 | 3.0 | 0.00 | 0.01 | 0.01 | 61 | 1016.4 |
| 20260901163606 | 78 | 294 | 5.0 | 8.0 | 0.00 | 0.01 | 0.01 | 62 | 1016.3 |
| 20260901163105 | 78 | 237 | 2.0 | 7.0 | 0.00 | 0.01 | 0.01 | 61 | 1016.4 |
| 20260901162601 | 78 | 290 | 4.0 | 6.0 | 0.00 | 0.01 | 0.01 | 60 | 1016.2 |
| 20260901162100 | 79 | 215 | 2.0 | 8.0 | 0.00 | 0.01 | 0.01 | 59 | 1016.2 |
| 20260901161558 | 79 | 221 | 2.0 | 7.0 | 0.00 | 0.01 | 0.01 | 61 | 1016.0 |
| 20260901161053 | 79 | 267 | 2.0 | 4.0 | 0.00 | 0.01 | 0.01 | 61 | 1016.1 |
| 20260901160549 | 78 | 275 | 2.0 | 2.0 | 0.00 | 0.01 | 0.01 | 63 | 1016.1 |
| 20260901160045 | 79 | 236 | 5.0 | 7.0 | 0.00 | 0.01 | 0.01 | 60 | 1016.4 |
| 20260901155543 | 79 | 258 | 3.0 | 4.0 | 0.00 | 0.01 | 0.01 | 61 | 1016.1 |
| 20260901155039 | 78 | 291 | 3.0 | 8.0 | 0.00 | 0.01 | 0.01 | 62 | 1016.1 |
| 20260901154539 | 78 | 222 | 2.0 | 4.0 | 0.00 | 0.01 | 0.01 | 63 | 1015.9 |
| 20260901154033 | 78 | 244 | 2.0 | 7.0 | 0.00 | 0.01 | 0.01 | 64 | 1015.9 |
| 20260901153523 | 78 | 231 | 1.0 | 3.0 | 0.00 | 0.01 | 0.01 | 63 | 1016.1 |
| 20260901153022 | 78 | 314 | 6.0 | 8.0 | 0.00 | 0.01 | 0.01 | 64 | 1016.2 |
| 20260901152517 | 78 | 291 | 3.0 | 7.0 | 0.00 | 0.01 | 0.01 | 64 | 1016.1 |
| 20260901152017 | 78 | 250 | 0.0 | 4.0 | 0.00 | 0.01 | 0.01 | 66 | 1016.2 |
| 20260901151512 | 78 | 240 | 0.0 | 2.0 | 0.00 | 0.01 | 0.01 | 67 | 1015.8 |
| 20260901151011 | 78 | 321 | 3.0 | 4.0 | 0.00 | 0.01 | 0.01 | 69 | 1015.9 |
| 20260901150509 | 78 | 284 | 3.0 | 6.0 | 0.00 | 0.01 | 0.01 | 67 | 1015.8 |
| 20260901150008 | 78 | 207 | 1.0 | 3.0 | 0.00 | 0.01 | 0.01 | 66 | 1015.7 |
| 20260901145506 | 77 | 216 | 0.0 | 3.0 | 0.00 | 0.01 | 0.01 | 69 | 1015.8 |
| 20260901145001 | 77 | 250 | 2.0 | 4.0 | 0.00 | 0.01 | 0.01 | 67 | 1015.7 |
| 20260901144456 | 78 | 249 | 1.0 | 6.0 | 0.00 | 0.01 | 0.01 | 71 | 1015.8 |
| 20260901143951 | 78 | 189 | 1.0 | 3.0 | 0.00 | 0.01 | 0.01 | 71 | 1016.0 |
| 20260901143447 | 78 | 197 | 0.0 | 1.0 | 0.00 | 0.01 | 0.01 | 71 | 1015.8 |
| 20260901142944 | 77 | 197 | 1.0 | 3.0 | 0.00 | 0.01 | 0.01 | 72 | 1016.0 |
| 20260901142438 | 77 | 283 | 1.0 | 3.0 | 0.00 | 0.01 | 0.01 | 74 | 1016.0 |
| 20260901141933 | 77 | 282 | 2.0 | 2.0 | 0.00 | 0.01 | 0.01 | 73 | 1015.9 |
| 20260901141427 | 76 | 200 | 1.0 | 2.0 | 0.00 | 0.01 | 0.01 | 76 | 1016.0 |
| 20260901140922 | 76 | 218 | 1.0 | 2.0 | 0.00 | 0.01 | 0.01 | 75 | 1016.2 |
| 20260901140420 | 76 | 208 | 0.0 | 2.0 | 0.00 | 0.01 | 0.01 | 76 | 1016.2 |
| 20260901135915 | 76 | 261 | 2.0 | 2.0 | 0.00 | 0.01 | 0.01 | 76 | 1015.9 |
| 20260901135409 | 75 | 212 | 0.0 | 2.0 | 0.00 | 0.01 | 0.01 | 77 | 1016.1 |
| 20260901134905 | 75 | 234 | 1.0 | 1.0 | 0.00 | 0.01 | 0.01 | 78 | 1016.1 |
| 20260901134401 | 75 | 208 | 0.0 | 1.0 | 0.00 | 0.01 | 0.01 | 80 | 1016.3 |
| 20260901133901 | 74 | 208 | 1.0 | 1.0 | 0.00 | 0.01 | 0.01 | 79 | 1016.1 |
| 20260901133359 | 73 | 255 | 0.0 | 1.0 | 0.00 | 0.01 | 0.01 | 81 | 1016.3 |
| 20260901132858 | 73 | 273 | 1.0 | 1.0 | 0.00 | 0.01 | 0.01 | 82 | 1016.2 |
| 20260901132353 | 73 | 255 | 0.0 | 1.0 | 0.00 | 0.01 | 0.01 | 80 | 1016.2 |
| 20260901131853 | 73 | 255 | 0.0 | 2.0 | 0.00 | 0.01 | 0.01 | 81 | 1016.1 |
| 20260901131352 | 73 | 195 | 0.0 | 1.0 | 0.00 | 0.01 | 0.01 | 80 | 1016.0 |
| 20260901130848 | 72 | 202 | 0.0 | 1.0 | 0.00 | 0.01 | 0.01 | 83 | 1015.8 |
| 20260901130342 | 72 | 284 | 1.0 | 4.0 | 0.00 | 0.01 | 0.01 | 83 | 1016.0 |
| 20260901125840 | 72 | 198 | 1.0 | 2.0 | 0.00 | 0.01 | 0.01 | 83 | 1015.9 |
| 20260901125334 | 72 | 192 | 0.0 | 0.0 | 0.00 | 0.01 | 0.01 | 85 | 1015.9 |
| 20260901124829 | 71 | 200 | 0.0 | 1.0 | 0.00 | 0.01 | 0.01 | 87 | 1015.9 |
| 20260901124325 | 71 | 173 | 1.0 | 1.0 | 0.00 | 0.01 | 0.01 | 87 | 1015.9 |
| 20260901123824 | 70 | 209 | 0.0 | 1.0 | 0.00 | 0.01 | 0.01 | 90 | 1015.9 |
| 20260901123319 | 69 | 211 | 0.0 | 0.0 | 0.00 | 0.01 | 0.01 | 92 | 1015.9 |
| 20260901122818 | 68 | 202 | 0.0 | 0.0 | 0.00 | 0.01 | 0.01 | 94 | 1015.9 |
| 20260901122317 | 68 | 213 | 0.0 | 2.0 | 0.00 | 0.01 | 0.01 | 93 | 1016.1 |
| 20260901121816 | 67 | 219 | 0.0 | 0.0 | 0.00 | 0.01 | 0.01 | 94 | 1016.0 |
| 20260901121312 | 67 | 230 | 0.0 | 2.0 | 0.00 | 0.01 | 0.01 | 95 | 1015.7 |
| 20260901120807 | 66 | 193 | 0.0 | 0.0 | 0.00 | 0.01 | 0.01 | 98 | 1015.9 |
| 20260901120307 | 66 | 122 | 0.0 | 0.0 | 0.00 | 0.01 | 0.01 | 98 | 1015.7 |
| 20260901115802 | 66 | 76 | 1.0 | 1.0 | 0.00 | 0.01 | 0.01 | 98 | 1015.9 |
| 20260901115258 | 65 | 199 | 1.0 | 2.0 | 0.00 | 0.01 | 0.01 | 98 | 1015.7 |
| 20260901114755 | 66 | 74 | 0.0 | 0.0 | 0.00 | 0.01 | 0.01 | 97 | 1015.8 |
| 20260901114250 | 66 | 204 | 0.0 | 0.0 | 0.00 | 0.01 | 0.01 | 98 | 1015.7 |
| 20260901113749 | 65 | 205 | 0.0 | 0.0 | 0.00 | 0.01 | 0.01 | 98 | 1015.6 |
| 20260901113244 | 65 | 189 | 0.0 | 1.0 | 0.00 | 0.01 | 0.01 | 98 | 1015.4 |
| 20260901112744 | 66 | 178 | 0.0 | 2.0 | 0.00 | 0.01 | 0.01 | 97 | 1015.6 |
| 20260901112243 | 66 | 303 | 0.0 | 0.0 | 0.00 | 0.01 | 0.01 | 96 | 1015.3 |
| 20260901111738 | 66 | 234 | 0.0 | 1.0 | 0.00 | 0.01 | 0.01 | 96 | 1015.3 |
| 20260901111237 | 66 | 206 | 0.0 | 1.0 | 0.00 | 0.01 | 0.01 | 96 | 1015.3 |
| 20260901110731 | 66 | 219 | 0.0 | 0.0 | 0.00 | 0.01 | 0.01 | 96 | 1015.5 |
| 20260901110226 | 66 | 215 | 0.0 | 0.0 | 0.00 | 0.01 | 0.01 | 97 | 1015.2 |
| 20260901105723 | 65 | 201 | 0.0 | 1.0 | 0.00 | 0.01 | 0.01 | 97 | 1015.5 |
| 20260901105223 | 65 | 162 | 0.0 | 1.0 | 0.00 | 0.01 | 0.01 | 98 | 1015.4 |
| 20260901104719 | 64 | 121 | 1.0 | 2.0 | 0.00 | 0.01 | 0.01 | 99 | 1015.5 |
| 20260901104214 | 64 | 196 | 0.0 | 1.0 | 0.00 | 0.01 | 0.01 | 99 | 1015.4 |
| 20260901103713 | 64 | 146 | 0.0 | 0.0 | 0.00 | 0.01 | 0.01 | 99 | 1015.8 |
| 20260901103209 | 64 | 150 | 0.0 | 0.0 | 0.00 | 0.01 | 0.01 | 99 | 1015.5 |
| 20260901102704 | 65 | 80 | 1.0 | 2.0 | 0.00 | 0.01 | 0.01 | 98 | 1015.6 |
| 20260901102203 | 65 | 182 | 0.0 | 0.0 | 0.00 | 0.01 | 0.01 | 98 | 1015.6 |
| 20260901101659 | 65 | 80 | 0.0 | 1.0 | 0.00 | 0.01 | 0.01 | 98 | 1015.4 |
| 20260901101159 | 65 | 242 | 1.0 | 3.0 | 0.00 | 0.01 | 0.01 | 99 | 1015.5 |
| 20260901100653 | 64 | 208 | 0.0 | 0.0 | 0.00 | 0.01 | 0.01 | 99 | 1015.5 |
| 20260901100148 | 64 | 82 | 1.0 | 1.0 | 0.00 | 0.01 | 0.01 | 99 | 1015.7 |
| 20260901095647 | 64 | 78 | 1.0 | 2.0 | 0.00 | 0.01 | 0.01 | 99 | 1015.5 |
| 20260901095144 | 64 | 168 | 0.0 | 0.0 | 0.00 | 0.01 | 0.01 | 99 | 1015.6 |
| 20260901094638 | 64 | 198 | 0.0 | 0.0 | 0.00 | 0.01 | 0.01 | 99 | 1015.6 |
| 20260901094133 | 64 | 178 | 0.0 | 1.0 | 0.00 | 0.01 | 0.01 | 99 | 1015.6 |
| 20260901093628 | 64 | 234 | 0.0 | 0.0 | 0.00 | 0.01 | 0.01 | 99 | 1015.6 |
| 20260901093127 | 64 | 150 | 0.0 | 1.0 | 0.00 | 0.01 | 0.01 | 99 | 1015.4 |
| 20260901092623 | 64 | 191 | 0.0 | 0.0 | 0.00 | 0.01 | 0.01 | 99 | 1015.5 |
| 20260901092119 | 64 | 231 | 0.0 | 0.0 | 0.00 | 0.01 | 0.01 | 99 | 1015.6 |
| 20260901091615 | 64 | 235 | 0.0 | 0.0 | 0.00 | 0.01 | 0.01 | 99 | 1015.5 |
| 20260901091109 | 64 | 83 | 1.0 | 1.0 | 0.00 | 0.01 | 0.01 | 99 | 1015.6 |
| 20260901090609 | 64 | 159 | 0.0 | 0.0 | 0.07 | 0.01 | 0.01 | 99 | 1015.7 |
| 20260901090104 | 64 | 198 | 0.0 | 0.0 | 0.07 | 0.01 | 0.01 | 99 | 1015.7 |
| 20260901085600 | 64 | 169 | 0.0 | 0.0 | 0.00 | 0.00 | 0.00 | 99 | 1015.4 |
| 20260901085055 | 64 | 176 | 0.0 | 0.0 | 0.00 | 0.00 | 0.00 | 99 | 1015.7 |
| 20260901084552 | 64 | 167 | 0.0 | 0.0 | 0.00 | 0.00 | 0.00 | 99 | 1015.6 |
| 20260901084048 | 64 | 211 | 0.0 | 0.0 | 0.00 | 0.00 | 0.00 | 99 | 1015.9 |
| 20260901083542 | 64 | 146 | 0.0 | 0.0 | 0.00 | 0.00 | 0.00 | 99 | 1015.8 |
| 20260901083041 | 64 | 134 | 0.0 | 0.0 | 0.00 | 0.00 | 0.00 | 99 | 1015.6 |
| 20260901082535 | 65 | 87 | 0.0 | 0.0 | 0.00 | 0.00 | 0.00 | 99 | 1015.6 |
| 20260901082031 | 65 | 205 | 0.0 | 0.0 | 0.00 | 0.00 | 0.00 | 99 | 1015.8 |
| 20260901081526 | 65 | 208 | 0.0 | 0.0 | 0.00 | 0.00 | 0.00 | 99 | 1015.6 |
| 20260901081021 | 65 | 142 | 0.0 | 0.0 | 0.00 | 0.00 | 0.00 | 99 | 1015.5 |
| 20260901080520 | 65 | 205 | 0.0 | 0.0 | 0.00 | 0.00 | 0.00 | 99 | 1015.6 |
| 20260901080019 | 65 | 210 | 0.0 | 0.0 | 0.00 | 0.00 | 0.00 | 99 | 1015.7 |
| 20260901075515 | 65 | 180 | 0.0 | 0.0 | 0.00 | 0.00 | 0.00 | 99 | 1015.6 |
| 20260901075014 | 65 | 226 | 0.0 | 1.0 | 0.00 | 0.00 | 0.00 | 99 | 1015.6 |
| 20260901074514 | 65 | 181 | 0.0 | 0.0 | 0.00 | 0.00 | 0.00 | 99 | 1015.7 |
| 20260901074009 | 65 | 188 | 0.0 | 0.0 | 0.00 | 0.00 | 0.00 | 99 | 1015.5 |
| 20260901073506 | 65 | 183 | 0.0 | 1.0 | 0.00 | 0.00 | 0.00 | 99 | 1015.5 |
| 20260901073001 | 65 | 197 | 0.0 | 0.0 | 0.00 | 0.00 | 0.00 | 99 | 1015.6 |
| 20260901072456 | 65 | 108 | 0.0 | 0.0 | 0.00 | 0.00 | 0.00 | 99 | 1015.4 |
| 20260901071950 | 65 | 166 | 0.0 | 0.0 | 0.00 | 0.00 | 0.00 | 99 | 1015.5 |
| 20260901071449 | 65 | 205 | 0.0 | 0.0 | 0.00 | 0.00 | 0.00 | 99 | 1015.5 |
| 20260901070944 | 65 | 181 | 0.0 | 0.0 | 0.00 | 0.00 | 0.00 | 99 | 1015.2 |
| 20260901070439 | 65 | 191 | 0.0 | 0.0 | 0.00 | 0.00 | 0.00 | 99 | 1015.4 |
| 20260901065938 | 65 | 174 | 0.0 | 0.0 | 0.00 | 0.00 | 0.00 | 99 | 1015.4 |
| 20260901065434 | 65 | 201 | 0.0 | 0.0 | 0.00 | 0.00 | 0.00 | 99 | 1015.4 |
| 20260901064928 | 65 | 174 | 0.0 | 0.0 | 0.00 | 0.00 | 0.00 | 99 | 1015.5 |
| 20260901064424 | 66 | 186 | 0.0 | 0.0 | 0.00 | 0.00 | 0.00 | 99 | 1015.6 |
| 20260901063916 | 65 | 179 | 0.0 | 0.0 | 0.00 | 0.00 | 0.00 | 99 | 1015.6 |
| 20260901063412 | 66 | 193 | 0.0 | 0.0 | 0.00 | 0.00 | 0.00 | 99 | 1015.4 |
| 20260901062908 | 66 | 189 | 0.0 | 0.0 | 0.00 | 0.00 | 0.00 | 99 | 1015.5 |
| 20260901062403 | 66 | 179 | 0.0 | 1.0 | 0.00 | 0.00 | 0.00 | 99 | 1015.6 |
| 20260901061853 | 65 | 177 | 1.0 | 1.0 | 0.00 | 0.00 | 0.00 | 99 | 1015.6 |
| 20260901061348 | 66 | 187 | 1.0 | 1.0 | 0.00 | 0.00 | 0.00 | 99 | 1015.6 |
| 20260901060838 | 65 | 172 | 0.0 | 1.0 | 0.00 | 0.00 | 0.00 | 99 | 1015.8 |
| 20260901060334 | 65 | 181 | 0.0 | 0.0 | 0.00 | 0.00 | 0.00 | 99 | 1015.6 |
| 20260901055833 | 65 | 178 | 0.0 | 0.0 | 0.00 | 0.00 | 0.00 | 99 | 1015.8 |
| 20260901055330 | 66 | 190 | 0.0 | 0.0 | 0.00 | 0.00 | 0.00 | 99 | 1015.6 |
| 20260901054826 | 65 | 199 | 0.0 | 0.0 | 0.00 | 0.00 | 0.00 | 99 | 1015.8 |
| 20260901054323 | 65 | 199 | 0.0 | 0.0 | 0.00 | 0.00 | 0.00 | 99 | 1015.6 |
| 20260901053819 | 66 | 186 | 0.0 | 0.0 | 0.00 | 0.00 | 0.00 | 99 | 1015.5 |
| 20260901053313 | 65 | 180 | 0.0 | 0.0 | 0.00 | 0.00 | 0.00 | 99 | 1015.6 |
| 20260901052809 | 65 | 189 | 0.0 | 0.0 | 0.00 | 0.00 | 0.00 | 99 | 1015.6 |
| 20260901052307 | 65 | 190 | 0.0 | 0.0 | 0.00 | 0.00 | 0.00 | 99 | 1015.6 |
| 20260901051757 | 65 | 189 | 0.0 | 0.0 | 0.00 | 0.00 | 0.00 | 99 | 1015.7 |
| 20260901051252 | 66 | 186 | 0.0 | 0.0 | 0.00 | 0.00 | 0.00 | 99 | 1015.7 |
| 20260901050748 | 66 | 195 | 0.0 | 0.0 | 0.00 | 0.00 | 0.00 | 99 | 1015.7 |
| 20260901050243 | 65 | 164 | 0.0 | 0.0 | 0.00 | 0.00 | 0.00 | 99 | 1015.5 |
| 20260901045738 | 65 | 185 | 0.0 | 0.0 | 0.00 | 0.00 | 0.00 | 99 | 1015.5 |
| 20260901045232 | 66 | 195 | 0.0 | 0.0 | 0.00 | 0.00 | 0.00 | 99 | 1015.7 |
| 20260901044728 | 66 | 186 | 0.0 | 0.0 | 0.00 | 0.00 | 0.00 | 99 | 1015.6 |
| 20260901044224 | 66 | 189 | 0.0 | 0.0 | 0.00 | 0.00 | 0.00 | 99 | 1015.9 |
| 20260901043720 | 66 | 206 | 0.0 | 0.0 | 0.00 | 0.00 | 0.00 | 99 | 1015.7 |
| 20260901043215 | 66 | 186 | 0.0 | 1.0 | 0.00 | 0.00 | 0.00 | 99 | 1015.7 |
| 20260901042715 | 66 | 195 | 0.0 | 0.0 | 0.00 | 0.00 | 0.00 | 99 | 1015.7 |
| 20260901042209 | 66 | 194 | 0.0 | 0.0 | 0.00 | 0.00 | 0.00 | 99 | 1015.6 |
| 20260901041705 | 67 | 149 | 1.0 | 1.0 | 0.00 | 0.00 | 0.00 | 99 | 1015.7 |
| 20260901041204 | 67 | 223 | 0.0 | 0.0 | 0.00 | 0.00 | 0.00 | 99 | 1015.6 |
| 20260901040659 | 67 | 226 | 0.0 | 0.0 | 0.00 | 0.00 | 0.00 | 99 | 1015.6 |
| 20260901040153 | 67 | 217 | 0.0 | 0.0 | 0.00 | 0.00 | 0.00 | 99 | 1015.7 |
| 20260901035652 | 67 | 214 | 0.0 | 0.0 | 0.00 | 0.06 | 0.06 | 99 | 1015.5 |
| 20260901035150 | 68 | 240 | 0.0 | 0.0 | 0.00 | 0.06 | 0.06 | 99 | 1015.6 |
| 20260901034644 | 68 | 238 | 0.0 | 1.0 | 0.00 | 0.06 | 0.06 | 99 | 1015.6 |
| 20260901034139 | 68 | 240 | 0.0 | 0.0 | 0.00 | 0.06 | 0.06 | 99 | 1015.8 |
| 20260901033638 | 68 | 232 | 0.0 | 0.0 | 0.00 | 0.06 | 0.06 | 99 | 1015.6 |
| 20260901033138 | 68 | 234 | 0.0 | 0.0 | 0.00 | 0.06 | 0.06 | 99 | 1015.6 |
| 20260901032636 | 68 | 235 | 0.0 | 0.0 | 0.00 | 0.06 | 0.06 | 99 | 1015.6 |
| 20260901032131 | 68 | 285 | 1.0 | 2.0 | 0.00 | 0.06 | 0.06 | 99 | 1015.4 |
| 20260901031627 | 68 | 230 | 0.0 | 0.0 | 0.00 | 0.06 | 0.06 | 99 | 1015.6 |
| 20260901031123 | 68 | 220 | 0.0 | 0.0 | 0.00 | 0.06 | 0.06 | 99 | 1015.4 |
| 20260901030623 | 68 | 220 | 0.0 | 0.0 | 0.00 | 0.06 | 0.06 | 99 | 1015.6 |
| 20260901030117 | 68 | 242 | 0.0 | 1.0 | 0.00 | 0.06 | 0.06 | 99 | 1015.5 |
| 20260901025612 | 68 | 279 | 0.0 | 1.0 | 0.00 | 0.06 | 0.06 | 99 | 1015.6 |
| 20260901025107 | 68 | 244 | 0.0 | 0.0 | 0.00 | 0.06 | 0.06 | 99 | 1015.5 |
| 20260901024601 | 68 | 229 | 0.0 | 1.0 | 0.00 | 0.06 | 0.06 | 99 | 1015.4 |
| 20260901024100 | 69 | 250 | 0.0 | 2.0 | 0.00 | 0.06 | 0.06 | 99 | 1015.6 |
| 20260901023559 | 69 | 238 | 0.0 | 1.0 | 0.00 | 0.06 | 0.06 | 99 | 1015.5 |
| 20260901023054 | 69 | 225 | 0.0 | 0.0 | 0.00 | 0.06 | 0.06 | 99 | 1015.5 |